Location: Goffs Oak
(51.7000°N, 0.0833°W)
Time: 09:56:30
(UTC+00:00)

Daily predictions for brighter satellites

Satellite Brightness Start Highest point End
(mag) Time Altitude Azimuth Time Altitude Azimuth Time Altitude Azimuth
IRS-1A Rocket 4.4 20:26:59 10° SSE 20:32:36 72° ENE 20:38:09 10° NNW
Cosmos 1943 Rocket 3.1 20:27:54 10° NW 20:33:20 48° WSW 20:38:43 10° S
Cosmos 1420 Rocket 4.1 20:29:04 10° NNW 20:34:25 77° ENE 20:39:44 10° SSE
USA 281 3.7 20:28:34 10° SE 20:34:54 52° NE 20:41:15 10° NNW
Cosmos 1743 3.4 20:34:24 10° N 20:37:46 35° ENE 20:41:05 10° SE
Cosmos 2278 Rocket 3.9 20:33:08 10° NW 20:37:55 29° WSW 20:42:41 10° SSW
NOSS 3-1 (A) 4.3 20:31:37 10° NW 20:38:44 72° SW 20:47:26 10° SSE
ISS -3.8 20:35:35 10° W 20:38:56 89° NNE 20:42:16 10° E
Cosmos 972 4.4 20:35:57 10° S 20:40:47 66° ESE 20:45:44 10° NNE
USA 245 2.4 20:42:46 10° SSE 20:44:57 45° ENE 20:47:08 10° N
Cosmos 2297 3.9 20:39:43 10° NNW 20:45:30 73° ENE 20:51:13 10° SE
Cosmos 1634 Rocket 4.3 20:39:55 10° N 20:46:07 54° ENE 20:52:13 10° SSE
USA 290 2.7 20:46:48 10° NNW 20:49:59 57° WSW 20:53:09 10° S
Cosmos 2112 Rocket 4.3 20:45:08 10° S 20:50:14 50° ESE 20:55:22 10° NNE
Cosmos 1766 Rocket 3.8 20:46:31 10° N 20:50:55 58° ENE 20:55:18 10° SSE
Okean-O 3.6 20:48:19 10° S 20:52:33 46° W 20:56:49 10° NNW
USA 229 DEB 4.1 20:46:25 10° NW 20:53:41 75° NE 21:01:39 10° SE
USA 229 4.1 20:46:31 10° NW 20:53:47 74° NE 21:01:46 10° SE
Cosmos 2034 Rocket 4.2 20:48:56 10° NNW 20:55:08 78° W 21:01:23 10° S
Cosmos 1726 3.3 20:53:44 10° NNE 20:56:16 22° ENE 20:58:35 11° ESE
Cosmos-2242 4.2 20:52:30 10° SSW 20:56:32 45° WNW 21:00:38 10° N
Spot 2 Rocket 3.6 20:54:24 10° SSE 20:59:23 71° ENE 21:04:26 10° NNW
Cosmos 1680 Rocket 3.5 20:55:12 10° SSW 21:00:27 69° ESE 21:05:42 10° NNE
USA 32 4.1 21:02:08 10° S 21:07:16 62° E 21:12:26 10° NNE
Cosmos 1933 4.4 21:05:27 10° SSW 21:09:15 46° WNW 21:13:06 10° N
Tsikada Rocket 4.0 21:03:31 10° S 21:09:41 76° E 21:15:57 10° NNE
CZ-4C R/B 4.1 21:06:34 10° N 21:10:08 52° WNW 21:13:51 10° SSW
USA 276 1.9 21:11:57 10° W 21:14:02 37° SSW 21:15:14 20° SE
Cosmos 2263 4.3 21:09:19 10° NNW 21:15:00 71° ENE 21:20:00 14° SE
MetOp-A 4.2 21:11:24 13° SE 21:15:09 48° ENE 21:19:46 10° N
SL-16 R/B 2.2 21:10:08 10° SSW 21:15:47 74° ESE 21:21:29 10° NNE
Cosmos 2056 Rocket 4.0 21:12:57 10° NNW 21:18:18 61° WSW 21:23:28 10° S
MOS 1 Rocket 3.5 21:13:56 12° SSE 21:18:39 78° ENE 21:23:56 10° N
Lacrosse 5 3.0 21:14:26 10° WNW 21:19:01 34° SW 21:23:08 12° SSE
Cosmos 1536 3.6 21:15:54 10° N 21:19:31 36° ENE 21:22:15 15° SE
Cosmos 1624 Rocket 4.4 21:15:32 10° NNW 21:20:38 59° WSW 21:25:35 11° S
Lacrosse 5 rocket 1.3 21:16:57 10° SW 21:21:15 80° SSE 21:25:28 10° ENE
Ariane Rocket 3.1 21:16:50 10° SSE 21:21:50 80° WSW 21:26:57 10° NNW
Cosmos 1452 Rocket 3.9 21:17:18 10° NNW 21:22:28 54° ENE 21:26:45 15° SE
Cosmos 1408 Rocket 4.2 21:18:39 10° N 21:22:55 42° ENE 21:26:12 16° SE
Cosmos 44 3.8 21:18:13 10° NW 21:22:57 48° WSW 21:26:45 14° SSE
Spot 1 4.4 21:20:24 10° NNE 21:24:18 43° E 21:27:36 14° S
Cosmos 1340 4.4 21:24:23 10° NNE 21:26:48 18° ENE 21:28:49 12° ESE
Cosmos 2369 Rocket 2.3 21:22:04 10° NNW 21:27:41 78° WSW 21:32:23 15° SSE
Cosmos 2221 2.7 21:24:05 10° SSW 21:28:24 73° WNW 21:32:44 10° N
Cosmos 2084 3.8 21:27:41 10° NW 21:31:18 45° SW 21:33:53 17° SSE
FALCON 9 R/B 4.5 21:29:04 10° SW 21:35:03 29° SSE 21:50:29 10° ESE
USA 306 2.9 21:37:15 10° WNW 21:41:03 70° NNE 21:44:58 10° E
Cosmos 2237 Rocket 4.1 21:38:00 10° WSW 21:43:08 33° NW 21:48:17 10° NNE
Cosmos 921 Rocket 3.1 21:38:52 10° SSW 21:43:20 88° ESE 21:47:52 10° NNE
Okean 3 Rocket 3.7 21:40:13 10° NNW 21:44:38 75° W 21:48:05 16° S
GEOS 3 Rocket 3.5 21:41:10 10° NE 21:46:23 77° SE 21:51:31 10° SW
ATLAS 3B R/B 4.0 21:43:33 10° NW 21:50:32 37° WSW 21:57:02 12° S
Landsat 5 3.1 21:48:15 10° NNE 21:52:03 75° ESE 21:54:55 17° S
Cosmos 1500 Rocket 3.6 21:51:00 10° N 21:55:19 64° ENE 21:57:58 22° SSE
Terra 3.1 21:52:56 10° SSW 21:57:14 34° W 22:01:33 10° NNW
Cosmos 1733 3.5 21:55:02 10° N 21:58:28 46° ENE 22:00:07 25° SE
Cosmos 1943 3.3 21:53:56 11° S 21:59:10 55° ESE 22:04:42 10° NE
ALOS 2 4.5 21:58:50 11° ESE 22:01:50 20° ENE 22:05:03 10° NNE
USA 234 3.7 21:55:40 10° E 22:02:07 63° NNE 22:08:34 10° WNW
Cosmos 1048 Rocket 3.9 21:59:01 13° S 22:03:39 67° ESE 22:08:44 10° NNE
Cosmos 1805 Rocket 3.6 21:59:53 10° N 22:04:15 66° ENE 22:06:48 24° SSE
H-2A R/B 3.6 22:02:30 18° ESE 22:04:54 34° ENE 22:08:43 10° N
Cosmos 1842 Rocket 3.8 22:01:41 12° SSW 22:05:50 70° WNW 22:10:16 10° N
Lacrosse 4 Rocket 3.4 22:03:20 10° NNW 22:06:29 21° NE 22:09:40 10° E
Cosmos 494 Rocket 3.9 22:01:43 10° SSW 22:06:50 89° WNW 22:11:59 10° NNE
Meteor 1-10 Rocket 4.2 22:02:23 14° S 22:07:26 82° E 22:13:07 10° NNE
Cosmos 1151 Rocket 3.8 22:08:37 24° SE 22:10:36 37° E 22:14:37 10° NNE
Meteor 2-9 Rocket 4.3 22:05:06 10° NNW 22:10:55 85° ENE 22:14:56 21° SSE
Cosmos 1302 Rocket 4.3 22:08:44 10° NNW 22:13:53 61° ENE 22:17:13 22° SE
Meteor 1-11 Rocket 3.8 22:08:34 10° NNW 22:14:11 74° W 22:18:13 20° S
ISS -3.6 22:12:15 10° W 22:15:30 51° SSW 22:16:32 35° SSE
Cosmos 1633 Rocket 4.4 22:11:54 10° N 22:15:46 29° ENE 22:18:08 18° ESE
Meteor 2-10 4.2 22:10:27 10° NNW 22:16:07 90° NNW 22:19:41 23° S
ATLAS 2AS CENTAUR R/B 4.1 22:10:20 10° W 22:17:13 43° NNW 22:23:51 10° NE
Meteor 1-19 Rocket 4.4 22:14:06 20° S 22:18:17 65° E 22:24:02 10° NNE
ARIANE 5 R/B 2.7 22:16:04 26° SSE 22:18:29 67° ENE 22:22:47 10° N
Cosmos 1340 Rocket 3.2 22:17:22 28° SSE 22:19:04 47° E 22:22:56 10° NNE
USA 59 Rocket 0.7 22:15:46 10° NW 22:19:16 47° NE 22:22:59 14° ESE
USA 281 4.0 22:14:24 15° S 22:19:31 44° WSW 22:25:47 10° NW
Cosmos 1331 Rocket 4.2 22:14:48 10° NNW 22:20:01 65° WSW 22:23:13 23° S
NOSS 2-1 (E) 4.1 22:16:38 10° NW 22:20:08 48° NE 22:23:50 15° ESE
MINOTAUR 4 R/B 4.0 22:18:56 10° NNE 22:21:50 43° E 22:22:22 38° SE
Cosmos 1110 Rocket 4.4 22:16:41 10° NNW 22:21:55 59° WSW 22:25:12 22° S
BREEZE-M DEB (TANK) 4.3 22:18:45 10° WSW 22:22:46 69° SSE 22:40:14 10° E
CZ-2C R/B 3.8 22:20:37 10° NNE 22:25:07 56° E 22:27:22 27° SSE
Cosmos 1726 3.5 22:26:51 10° NW 22:29:27 24° W 22:31:07 16° SW
NOSS 2-1 (D) 3.8 22:28:13 10° NW 22:31:46 60° NE 22:34:55 19° ESE
Nadezhda 4 Rocket 3.9 22:30:38 20° S 22:35:04 84° E 22:41:20 10° N
Cosmos 1805 3.1 22:35:03 10° N 22:38:47 73° ENE 22:40:09 37° SSE
IRIDIUM 106 4.3 22:36:40 10° N 22:41:55 77° E 22:44:46 28° SSE
Cosmos 1743 Rocket 4.0 22:41:23 10° NNW 22:45:40 54° W 22:47:56 26° SSW
Sich 1 3.8 22:46:09 10° NNW 22:50:19 45° W 22:52:35 24° SSW
Spot 2 4.5 22:50:57 29° SE 22:53:13 64° ENE 22:58:00 10° N
Cosmos 1975 2.7 22:51:46 10° N 22:55:43 87° E 22:57:09 39° SSE
Lacrosse 5 rocket 2.6 22:55:48 10° W 22:59:53 44° NNW 23:03:53 10° ENE
SL-16 R/B 4.2 22:55:34 10° W 23:00:27 29° NW 23:05:23 10° NNE
Cosmos 1340 3.4 22:58:02 10° NNW 23:01:14 37° W 23:02:14 30° SW
Cosmos 1603 3.7 22:57:29 16° SSW 23:02:11 84° WNW 23:07:57 10° NNE
Cosmos 1626 2.1 23:04:41 44° ESE 23:05:04 47° E 23:08:13 10° NNE
PSLV R/B 4.0 23:02:25 10° N 23:06:31 74° WNW 23:08:26 30° SSW
NOSS 2-1 (C) 3.4 23:03:19 10° NW 23:07:01 79° SW 23:09:08 32° SE
USA 267 3.6 23:01:02 10° ENE 23:07:11 42° SE 23:10:42 24° S
Cosmos 1674 4.1 23:07:50 20° E 23:08:19 21° E 23:11:01 10° NE
Meteor 1-27 Rocket 4.2 23:04:40 16° SW 23:08:57 54° WNW 23:14:23 10° N
Cosmos 2369 Rocket 4.3 23:07:49 10° WNW 23:10:46 15° W 23:13:43 10° SW
USA 306 2.9 23:11:02 10° WNW 23:14:47 47° SSW 23:15:15 44° S
Cosmos 2026 Rocket 4.0 23:12:22 26° S 23:16:12 90° E 23:22:31 10° N
Cosmos 1833 Rocket 4.1 23:17:10 20° SE 23:18:51 23° ESE 23:23:07 10° NE
Cosmos 220 Rocket 3.9 23:30:05 39° S 23:31:35 71° ESE 23:35:55 10° NNE
Cosmos 1515 Rocket 3.9 23:31:37 36° SSE 23:33:00 51° E 23:37:13 10° NNE
Cosmos 1328 Rocket 3.5 23:33:10 36° SSW 23:34:54 77° W 23:39:16 10° N
SL-8 R/B 3.7 23:31:23 10° WSW 23:36:01 54° S 23:40:41 10° E
Cosmos 1553 Rocket 3.9 23:30:20 10° N 23:36:27 89° W 23:39:39 30° S
Meteor 1-18 Rocket 4.4 23:33:56 27° SSW 23:37:18 81° WNW 23:43:18 10° NNE
ALOS 2 2.8 23:36:13 37° SSW 23:37:47 62° WSW 23:42:10 10° NNW
Spot 4 4.4 23:37:28 30° SSW 23:39:22 46° W 23:43:59 10° NNW
H-2A R/B 3.7 23:38:30 24° SW 23:39:53 30° W 23:43:37 10° NNW
Cosmos 1470 Rocket 3.6 23:35:42 10° NNW 23:40:10 74° W 23:41:47 39° S
Cosmos 1869 Rocket 4.5 23:36:51 10° N 23:40:57 39° ENE 23:42:59 24° SE
USA 234 3.2 23:38:51 12° SE 23:45:05 77° SSW 23:51:40 10° WNW
Lacrosse 4 Rocket 1.2 23:41:10 10° NW 23:45:14 76° SW 23:46:29 43° SSE
Meteor 2-4 Rocket 4.2 23:42:30 23° SSW 23:46:11 61° WNW 23:52:06 10° N
NOSS 8 (A) 4.2 23:46:21 55° SSW 23:47:00 75° SE 23:50:04 10° NE
Cosmos 1633 Rocket 4.0 23:49:30 10° NNW 23:53:33 36° W 23:55:08 27° SW
